Location: Peebles
(55.6412°N, 3.1714°W)
Time: 20:09:30
(UTC+01:00)

deb Kosmos-2123 - Pass Details

Date: 07 July 2022
Orbit: 942 x 985 km, 82.9° (Epoch: 17 August)

Event Time Altitude Azimuth Distance (km) Brightness Sun altitude
Exits shadow 00:26:28 12° 146° (SE) 2,624 ? -11.0°
Maximum altitude 00:31:40 34° 85° (E) 1,560 ? -11.1°
Drops below altitude 10° 00:37:11 10° 24° (NNE) 2,736 ? -11.3°
Sets 00:39:54 0° 15° (NNE) 3,681 ? -11.3°
